Weather History for Brownsville, TX

Change the Weather History Date:

Friday, January 27, 2012

  Actual Average Record
Temperature  
Mean Temperature 63 °F 62 °F  
Max Temperature 79 °F 71 °F 85 °F (1917)
Min Temperature 46 °F 52 °F 32 °F (1948)
Degree Days  
Heating Degree Days 2 5  
Month to date heating degree days 64 156  
Since 1 July heating degree days 246 375  
Cooling Degree Days 0 2  
Month to date cooling degree days 107 54  
Year to date cooling degree days 107 54  
Growing Degree Days 12 (Base 50)    
Moisture  
Dew Point 51 °F    
Average Humidity 66    
Maximum Humidity 100    
Minimum Humidity 32    
Precipitation  
Precipitation 0.00 in 0.05 in 1.38 in (1919)
Month to date precipitation 0.25 1.09  
Year to date precipitation 0.25 1.09  
Sea Level Pressure  
Sea Level Pressure 30.05 in    
Wind  
Wind Speed 8 mph (SSE)    
Max Wind Speed 25 mph    
Max Gust Speed 30 mph    
Visibility 10 miles    
Events      
T = Trace of Precipitation, MM = Missing Value Source: NWS Daily Summary

Daily Weather History Graph

Daily Weather History Graph

Search for Another Location

Airport:

Trip Planner

Search our weather history database for the weather conditions in past years. The results will help you decide how hot, cold, wet, or windy it might be!

Date:

Astronomy

Jan. 27, 2012 Rise Set
Actual Time 7:15 AM CST 6:09 PM CST
Civil Twilight 6:51 AM CST 6:33 PM CST
Nautical Twilight 6:23 AM CST 7:01 PM CST
Astronomical Twilight 5:56 AM CST 7:28 PM CST
Moon 9:43 AM CST (1/27) 10:25 PM CST (1/27)
Length of Visible Light 11h 41m
Length of Day
10h 53m
Waxing Crescent, 20% of the Moon is Illuminated
Jan 27
Waxing Crescent
Jan 30
First Quarter
Feb 7
Full
Feb 14
Last Quarter
Feb 21
New

Hourly Weather History & Observations

Time (CST) Temp. Windchill Dew Point Humidity Pressure Visibility Wind Dir Wind Speed Gust Speed Precip Events Conditions
12:53 AM 51.1 °F - 48.0 °F 89% 30.09 in 10.0 mi SSW 3.5 mph - N/A   Unknown
1:53 AM 53.1 °F - 48.9 °F 86% 30.09 in 10.0 mi Calm Calm - N/A   Clear
2:53 AM 50.0 °F - 48.0 °F 93% 30.09 in 10.0 mi ESE 3.5 mph - N/A   Clear
3:53 AM 50.0 °F - 48.9 °F 96% 30.08 in 10.0 mi Calm Calm - N/A   Clear
4:53 AM 48.9 °F - 48.0 °F 97% 30.08 in 10.0 mi Calm Calm - N/A   Clear
5:53 AM 46.0 °F 43.1 °F 45.0 °F 96% 30.08 in 10.0 mi South 5.8 mph - N/A   Clear
6:53 AM 51.1 °F - 48.9 °F 92% 30.10 in 10.0 mi Calm Calm - N/A   Clear
7:53 AM 50.0 °F - 46.9 °F 89% 30.11 in 10.0 mi South 5.8 mph - N/A   Clear
8:53 AM 62.1 °F - 55.9 °F 80% 30.13 in 10.0 mi South 5.8 mph - N/A   Clear
9:53 AM 71.1 °F - 52.0 °F 51% 30.13 in 10.0 mi South 13.8 mph - N/A   Clear
10:53 AM 75.0 °F - 50.0 °F 41% 30.13 in 10.0 mi South 15.0 mph - N/A   Clear
11:53 AM 75.9 °F - 48.0 °F 37% 30.11 in 10.0 mi South 19.6 mph 23.0 mph N/A   Clear
12:53 PM 77.0 °F - 48.0 °F 36% 30.06 in 10.0 mi South 19.6 mph 24.2 mph N/A   Clear
1:53 PM 78.1 °F - 46.0 °F 32% 30.01 in 10.0 mi South 13.8 mph 21.9 mph N/A   Clear
2:53 PM 78.1 °F - 46.0 °F 32% 29.98 in 10.0 mi SSE 15.0 mph 23.0 mph N/A   Clear
3:53 PM 77.0 °F - 48.0 °F 36% 29.96 in 10.0 mi SSE 17.3 mph 29.9 mph N/A   Clear
4:53 PM 73.0 °F - 54.0 °F 51% 29.96 in 10.0 mi SSE 21.9 mph - N/A   Clear
5:53 PM 69.1 °F - 57.0 °F 65% 29.95 in 10.0 mi SSE 16.1 mph 26.5 mph N/A   Clear
6:53 PM 66.0 °F - 57.0 °F 73% 29.97 in 10.0 mi SSE 10.4 mph - N/A   Clear
7:53 PM 64.0 °F - 57.0 °F 78% 29.99 in 10.0 mi SE 6.9 mph - N/A   Clear
8:53 PM 61.0 °F - 55.0 °F 81% 30.01 in 10.0 mi Calm Calm - N/A   Clear
9:53 PM 57.9 °F - 55.0 °F 90% 30.02 in 10.0 mi Calm Calm - N/A   Clear
10:53 PM 55.9 °F - 54.0 °F 93% 30.03 in 10.0 mi East 3.5 mph - N/A   Clear
11:53 PM 57.0 °F - 54.0 °F 89% 30.03 in 10.0 mi ESE 4.6 mph - N/A   Clear